FW2894 Weather Reports


Display with metric or nautical units.
time (UTC)temp
F
wind
direction
speed
MPH
gust
MPH
rain 1hr
in
rain 24hr
in
rain mn
in
humidity
%
barometer
mb
20210801041324 65 281 0.0 0.0 0.00 0.00 0.00 55 1021.1
20210801034320 63 281 0.0 0.0 0.00 0.00 0.00 55 1020.7
20210801032812 63 281 0.0 0.0 0.00 0.00 0.00 54 1020.6
20210801025823 65 281 0.0 0.0 0.00 0.00 0.00 54 1020.4
20210801024319 65 281 0.0 0.0 0.00 0.00 0.00 53 1020.0
20210801022821 66 281 0.0 0.0 0.00 0.00 0.00 53 1019.8
20210801015822 69 281 0.0 0.0 0.00 0.00 0.00 50 1019.9
20210801014322 70 281 0.0 0.0 0.00 0.00 0.00 48 1019.7
20210801011323 73 281 0.0 0.0 0.00 0.00 0.00 49 1019.7
20210801005824 73 281 0.0 0.0 0.00 0.00 0.00 49 1019.8
20210801004320 73 281 0.0 0.0 0.00 0.00 0.00 48 1019.8
20210801001314 73 281 0.0 2.0 0.00 0.00 0.00 46 1020.0
20210731234320 74 41 0.0 2.0 0.00 0.00 0.00 46 1020.2
20210731232812 74 41 0.0 0.0 0.00 0.00 0.00 45 1020.0
20210731231311 74 41 0.0 1.0 0.00 0.00 0.00 46 1020.1
20210731224321 74 40 2.0 4.0 0.00 0.00 0.00 44 1020.1
20210731222815 74 28 3.0 5.0 0.00 0.00 0.00 42 1020.2
20210731215822 74 15 3.0 9.0 0.00 0.00 0.00 41 1020.3
20210731214319 74 23 3.0 8.0 0.00 0.00 0.00 43 1020.4
20210731212809 73 19 3.0 6.0 0.00 0.00 0.00 43 1020.6
20210731205818 74 15 4.0 9.0 0.00 0.00 0.00 42 1020.8
20210731204315 75 26 5.0 9.0 0.00 0.00 0.00 38 1020.6
20210731201324 77 57 5.0 10.0 0.00 0.00 0.00 36 1020.5
20210731195823 76 15 4.0 11.0 0.00 0.00 0.00 37 1020.3
20210731192815 75 74 5.0 7.0 0.00 0.00 0.00 39 1020.7
20210731185824 73 30 5.0 12.0 0.00 0.00 0.00 39 1020.6
20210731184321 73 5 6.0 10.0 0.00 0.00 0.00 42 1020.5
20210731181314 71 11 7.0 10.0 0.00 0.00 0.00 45 1020.4
20210731175811 72 31 5.0 10.0 0.00 0.00 0.00 44 1020.6
20210731172820 72 53 5.0 12.0 0.00 0.00 0.00 44 1020.5
20210731165822 72 28 6.0 13.0 0.00 0.00 0.00 45 1020.3
20210731164319 71 24 8.0 15.0 0.00 0.00 0.00 45 1020.2
20210731155824 68 17 5.0 10.0 0.00 0.00 0.00 51 1020.1
20210731154318 67 14 5.0 11.0 0.00 0.00 0.00 51 1020.1
20210731152809 67 28 7.0 10.0 0.00 0.00 0.00 52 1020.3
20210731145825 67 15 5.0 10.0 0.00 0.00 0.00 53 1019.8
20210731142825 66 28 5.0 11.0 0.00 0.00 0.00 55 1019.3
20210731141312 65 25 5.0 9.0 0.00 0.00 0.00 55 1019.2
20210731135805 65 16 4.0 10.0 0.00 0.00 0.00 56 1018.7
20210731132824 65 36 6.0 11.0 0.00 0.00 0.00 55 1018.3
20210731131314 65 12 6.0 11.0 0.00 0.00 0.00 55 1018.1
20210731125810 65 355 5.0 14.0 0.00 0.00 0.00 55 1018.1
20210731122822 67 360 6.0 12.0 0.00 0.00 0.00 54 1017.1
20210731121316 67 45 3.0 6.0 0.00 0.00 0.00 55 1016.2
20210731115809 67 45 0.0 2.0 0.00 0.00 0.00 54 1016.2
20210731114308 67 49 0.0 3.0 0.00 0.00 0.00 54 1016.3
20210731111325 67 38 2.0 5.0 0.00 0.00 0.00 54 1016.7
20210731105816 67 29 4.0 9.0 0.00 0.00 0.00 53 1016.5
20210731102827 68 19 3.0 9.0 0.00 0.00 0.00 53 1016.1
20210731101318 68 30 5.0 11.0 0.00 0.00 0.00 53 1016.1
20210731095813 68 36 2.0 5.0 0.00 0.00 0.00 53 1016.4
20210731092822 68 16 2.0 4.0 0.00 0.00 0.00 53 1016.1
20210731091321 68 12 3.0 6.0 0.00 0.00 0.00 52 1015.7
20210731085809 68 68 0.0 6.0 0.00 0.00 0.00 52 1015.5
20210731082819 69 104 3.0 8.0 0.00 0.00 0.00 51 1015.7
20210731081311 69 69 3.0 6.0 0.00 0.00 0.00 51 1015.9
20210731074322 69 103 3.0 9.0 0.00 0.00 0.00 51 1016.3
20210731072814 69 43 7.0 14.0 0.00 0.00 0.00 52 1016.6
20210731071311 68 28 10.0 19.0 0.00 0.00 0.00 52 1016.8
20210731065815 68 34 14.0 18.0 0.00 0.00 0.00 52 1016.5
20210731062824 71 23 12.0 18.0 0.00 0.00 0.00 51 1015.9
20210731061323 71 5 12.0 18.0 0.00 0.00 0.00 53 1015.7
20210731054315 72 32 3.0 6.0 0.00 0.00 0.00 53 1014.6
20210731052805 72 81 4.0 10.0 0.00 0.00 0.00 53 1014.7
20210731045827 73 40 4.0 8.0 0.00 0.00 0.00 52 1015.1